Showing default

SPARK 1, 41900

Orbit data source: Space-Track

SPARK 1, 41900 is a payload satellite owned by SECM (CN) in SSO that was launched on Wed, 21 Dec 2016 UTC via a CHANG ZHENG 2D launch vehicle from the Jiuquan Satellite Launch Center, China (JSC). Payload-class satellites include a variety of spacecraft equipped with specific instruments for various scientific and technological missions. These include communications satellites like Starlink; space stations such as the ISS; scientific satellites like the Hubble; Earth observation satellites from companies like Planet Labs, Umbra, and HawkEye 360; GPS; miniature CubeSats for education and research; and military/defense satellites.

Loading next visibility...
Identifier
41900, 2016-081C
Orbit
SSO
Country
Flag of CNCN / PRC
Related business
Manufacturer
SECM
Mission
Operational Civil Imaging
Bus & Motor
SPARK, Unknown motor
Mass
43 kg wet, 43 kg dry
Launch date (UTC)
2016-12-21 (10 years ago)
Launch vehicle
CHANG ZHENG 2D
Launch site
Jiuquan Satellite Launch Center, China (JSC)
Object type
Payload
Rocket body
Debris
Shape & HBR
Box + 2 Pan, 0.5 m
Radar Cross Section
0.388 m², Medium (>0.1 m² and < 1m²)

Expand to show TLE details & history
Last TLE update: 11 hours ago

TLE from 11 hours ago
0 SPARK 1
1 41900U 16081C   26264.71953576  .00000306  00000-0  74280-4 0  9997
2 41900  98.5568 262.2036 0024191  25.0613 335.1754 14.59870117518355
Epoch: 2026-09-21T17:16Z
TLE epoch observation values (Epoch: 2026-09-21T17:16:07.889Z)
Latitude
-0.00009°
Longitude
2.57542°
Altitude
681.045 km
Speed
7.524 km/s
True Right ascension
17h 28m 48s
True Declination
0° 00' 00"
Sunlit
Object was in daylight at epoch
Visualization orbit readout
Latitude
Unknown
Longitude
Unknown
Altitude
Unknown
Speed
Unknown
Apparent Right ascension
Unknown
Apparent Declination
Unknown
Sunlit
N/A
Visualization observer readout
Local Sidereal Time
21:42:52
Azimuth
Unknown
Elevation
Unknown
Doppler factor
Unknown
Orbital elements
Apogee altitude
707.792 km
Perigee altitude
673.591 km
Semi-major axis
7,068.829 km
Eccentricity
0.00242
Inclination
98.5568°
RAAN
262.2036°
Arg. of periapsis
25.0613°
True anomaly
335.0587°
Mean anomaly
335.1754°
Eccentric anomaly
335.11708°
Mean motion
3.65193 °/min
Orbital period
98.58 mins
BSTAR
0.00007428
Loading maneuver chart data...
Computing Atmospheric mass density...
Loading historical data...
Loading historical data...
Loading historical data...
Loading historical data...
Loading historical data...
Loading historical data...
Loading historical data...
Other satellites on launch #81 in the year 2016 (2016-12-21 UTC)

Documentation

Showing up to 5 results
|